Time,TemperatureF,DewpointF,PressureIn,WindDirection,WindDirectionDegrees,WindSpeedMPH,WindSpeedGustMPH,Humidity,HourlyPrecipIn,Conditions,Clouds,dailyrainin,SoftwareType,DateUTC
2013-04-06 00:00:00,37.4,20.0,29.83,WSW,248,17.4,17.4,49,0.00,,,0.00,WUHU216HW,2013-04-06 04:00:00,
2013-04-06 00:05:00,37.4,19.4,29.83,North,0,0.0,17.4,48,0.00,,,0.00,WUHU216HW,2013-04-06 04:05:00,
2013-04-06 00:10:00,37.4,19.0,29.84,North,0,0.0,17.4,47,0.00,,,0.00,WUHU216HW,2013-04-06 04:10:00,
2013-04-06 00:15:00,37.4,19.0,29.84,North,0,0.0,0.0,47,0.00,,,0.00,WUHU216HW,2013-04-06 04:15:00,
2013-04-06 00:20:00,37.3,18.8,29.84,North,0,0.0,0.0,47,0.00,,,0.00,WUHU216HW,2013-04-06 04:20:00,
2013-04-06 00:25:00,37.1,18.6,29.84,North,0,0.0,0.0,47,0.00,,,0.00,WUHU216HW,2013-04-06 04:25:00,
2013-04-06 00:30:00,36.7,18.3,29.84,North,0,0.0,0.0,47,0.00,,,0.00,WUHU216HW,2013-04-06 04:30:00,
2013-04-06 00:35:00,36.5,18.6,29.85,North,0,0.0,0.0,48,0.00,,,0.00,WUHU216HW,2013-04-06 04:35:00,
2013-04-06 00:40:00,36.4,18.0,29.85,North,0,0.0,0.0,47,0.00,,,0.00,WUHU216HW,2013-04-06 04:40:00,
2013-04-06 00:45:00,36.4,18.6,29.85,North,0,0.0,0.0,48,0.00,,,0.00,WUHU216HW,2013-04-06 04:45:00,
2013-04-06 00:50:00,36.2,18.4,29.85,North,0,0.0,0.0,48,0.00,,,0.00,WUHU216HW,2013-04-06 04:50:00,
2013-04-06 00:55:00,36.0,18.2,29.86,North,0,0.0,0.0,48,0.00,,,0.00,WUHU216HW,2013-04-06 04:55:00,
2013-04-06 01:00:00,35.8,18.5,29.86,North,0,0.0,0.0,49,0.00,,,0.00,WUHU216HW,2013-04-06 05:00:00,
2013-04-06 01:05:00,35.6,18.4,29.86,North,0,0.0,0.0,49,0.00,,,0.00,WUHU216HW,2013-04-06 05:05:00,
2013-04-06 01:10:00,35.6,18.4,29.87,North,0,0.0,0.0,49,0.00,,,0.00,WUHU216HW,2013-04-06 05:10:00,
2013-04-06 01:15:00,35.6,18.4,29.87,North,0,0.0,0.0,49,0.00,,,0.00,WUHU216HW,2013-04-06 05:15:00,
2013-04-06 01:20:00,35.5,18.2,29.87,North,0,0.0,0.0,49,0.00,,,0.00,WUHU216HW,2013-04-06 05:20:00,
2013-04-06 01:25:00,35.3,18.0,29.87,North,0,0.0,0.0,49,0.00,,,0.00,WUHU216HW,2013-04-06 05:25:00,
2013-04-06 01:30:00,35.3,18.0,29.87,North,0,0.0,0.0,49,0.00,,,0.00,WUHU216HW,2013-04-06 05:30:00,
2013-04-06 01:35:00,35.1,17.8,29.87,North,0,0.0,0.0,49,0.00,,,0.00,WUHU216HW,2013-04-06 05:35:00,
2013-04-06 01:40:00,34.9,17.6,29.88,North,0,0.0,0.0,49,0.00,,,0.00,WUHU216HW,2013-04-06 05:40:00,
2013-04-06 01:45:00,34.6,17.3,29.88,North,0,0.0,0.0,49,0.00,,,0.00,WUHU216HW,2013-04-06 05:45:00,
2013-04-06 01:50:00,34.4,16.7,29.88,North,0,0.0,0.0,48,0.00,,,0.00,WUHU216HW,2013-04-06 05:50:00,
2013-04-06 01:55:00,34.2,16.9,29.88,North,0,0.0,0.0,49,0.00,,,0.00,WUHU216HW,2013-04-06 05:55:00,
2013-04-06 02:00:00,34.0,16.3,29.88,North,0,0.0,0.0,48,0.00,,,0.00,WUHU216HW,2013-04-06 06:00:00,
2013-04-06 02:05:00,33.8,16.1,29.88,North,0,0.0,0.0,48,0.00,,,0.00,WUHU216HW,2013-04-06 06:05:00,
2013-04-06 02:10:00,33.7,15.9,29.88,North,0,0.0,0.0,48,0.00,,,0.00,WUHU216HW,2013-04-06 06:10:00,
2013-04-06 02:15:00,33.5,15.8,29.88,North,0,0.0,0.0,48,0.00,,,0.00,WUHU216HW,2013-04-06 06:15:00,
2013-04-06 02:20:00,33.3,15.6,29.88,North,0,0.0,0.0,48,0.00,,,0.00,WUHU216HW,2013-04-06 06:20:00,
2013-04-06 02:25:00,33.3,15.6,29.88,North,0,0.0,0.0,48,0.00,,,0.00,WUHU216HW,2013-04-06 06:25:00,
2013-04-06 02:30:00,33.5,15.3,29.89,North,0,0.0,0.0,47,0.00,,,0.00,WUHU216HW,2013-04-06 06:30:00,
2013-04-06 02:35:00,33.3,15.1,29.89,North,0,0.0,0.0,47,0.00,,,0.00,WUHU216HW,2013-04-06 06:35:00,
2013-04-06 02:40:00,33.3,15.1,29.89,North,0,0.0,0.0,47,0.00,,,0.00,WUHU216HW,2013-04-06 06:40:00,
2013-04-06 02:45:00,33.3,15.1,29.89,North,0,0.0,0.0,47,0.00,,,0.00,WUHU216HW,2013-04-06 06:45:00,
2013-04-06 02:50:00,33.1,14.9,29.89,North,0,0.0,0.0,47,0.00,,,0.00,WUHU216HW,2013-04-06 06:50:00,
2013-04-06 02:55:00,32.9,14.8,29.89,North,0,0.0,0.0,47,0.00,,,0.00,WUHU216HW,2013-04-06 06:55:00,
2013-04-06 03:00:00,32.8,14.6,29.90,North,0,0.0,0.0,47,0.00,,,0.00,WUHU216HW,2013-04-06 07:00:00,
2013-04-06 03:05:00,32.6,14.5,29.90,North,0,0.0,0.0,47,0.00,,,0.00,WUHU216HW,2013-04-06 07:05:00,
2013-04-06 03:10:00,32.4,14.3,29.90,North,0,0.0,0.0,47,0.00,,,0.00,WUHU216HW,2013-04-06 07:10:00,
2013-04-06 03:15:00,32.4,14.3,29.90,North,0,0.0,0.0,47,0.00,,,0.00,WUHU216HW,2013-04-06 07:15:00,
2013-04-06 03:20:00,32.4,14.3,29.91,North,0,0.0,0.0,47,0.00,,,0.00,WUHU216HW,2013-04-06 07:20:00,
2013-04-06 03:25:00,32.2,14.1,29.92,North,0,0.0,0.0,47,0.00,,,0.00,WUHU216HW,2013-04-06 07:25:00,
2013-04-06 03:30:00,32.0,14.0,29.92,North,0,0.0,0.0,47,0.00,,,0.00,WUHU216HW,2013-04-06 07:30:00,
2013-04-06 03:35:00,32.2,14.1,29.92,North,0,0.0,0.0,47,0.00,,,0.00,WUHU216HW,2013-04-06 07:35:00,
2013-04-06 03:40:00,32.0,14.0,29.92,North,0,0.0,0.0,47,0.00,,,0.00,WUHU216HW,2013-04-06 07:40:00,
2013-04-06 03:45:00,31.9,13.8,29.93,North,0,0.0,0.0,47,0.00,,,0.00,WUHU216HW,2013-04-06 07:45:00,
2013-04-06 03:50:00,31.9,13.8,29.92,North,0,0.0,0.0,47,0.00,,,0.00,WUHU216HW,2013-04-06 07:50:00,
2013-04-06 03:55:00,31.9,13.8,29.93,North,0,0.0,0.0,47,0.00,,,0.00,WUHU216HW,2013-04-06 07:55:00,
2013-04-06 04:00:00,31.9,13.8,29.93,North,0,0.0,0.0,47,0.00,,,0.00,WUHU216HW,2013-04-06 08:00:00,
2013-04-06 04:05:00,31.9,13.3,29.94,North,0,0.0,0.0,46,0.00,,,0.00,WUHU216HW,2013-04-06 08:05:00,
2013-04-06 04:10:00,31.7,12.6,29.94,North,0,0.0,0.0,45,0.00,,,0.00,WUHU216HW,2013-04-06 08:10:00,
2013-04-06 04:15:00,31.5,12.5,29.95,North,0,0.0,0.0,45,0.00,,,0.00,WUHU216HW,2013-04-06 08:15:00,
2013-04-06 04:20:00,31.5,12.5,29.95,North,0,0.0,0.0,45,0.00,,,0.00,WUHU216HW,2013-04-06 08:20:00,
2013-04-06 04:25:00,31.5,12.0,29.95,North,0,0.0,0.0,44,0.00,,,0.00,WUHU216HW,2013-04-06 08:25:00,
2013-04-06 04:30:00,31.5,12.0,29.96,North,0,0.0,0.0,44,0.00,,,0.00,WUHU216HW,2013-04-06 08:30:00,
2013-04-06 04:35:00,31.3,11.4,29.96,North,0,0.0,0.0,43,0.00,,,0.00,WUHU216HW,2013-04-06 08:35:00,
2013-04-06 04:40:00,31.1,11.2,29.96,North,0,0.0,0.0,43,0.00,,,0.00,WUHU216HW,2013-04-06 08:40:00,
2013-04-06 04:45:00,31.0,11.0,29.97,North,0,0.0,0.0,43,0.00,,,0.00,WUHU216HW,2013-04-06 08:45:00,
2013-04-06 04:50:00,30.6,11.2,29.98,North,0,0.0,0.0,44,0.00,,,0.00,WUHU216HW,2013-04-06 08:50:00,
2013-04-06 04:55:00,30.6,11.7,29.98,North,0,0.0,0.0,45,0.00,,,0.00,WUHU216HW,2013-04-06 08:55:00,
2013-04-06 05:00:00,30.4,11.5,29.98,North,0,0.0,0.0,45,0.00,,,0.00,WUHU216HW,2013-04-06 09:00:00,
2013-04-06 05:05:00,30.4,11.0,29.99,NW,315,10.1,10.1,44,0.00,,,0.00,WUHU216HW,2013-04-06 09:05:00,
2013-04-06 05:10:00,30.4,11.0,29.99,North,0,0.0,10.1,44,0.00,,,0.00,WUHU216HW,2013-04-06 09:10:00,
2013-04-06 05:15:00,30.4,10.5,30.00,North,0,0.0,10.1,43,0.00,,,0.00,WUHU216HW,2013-04-06 09:15:00,
2013-04-06 05:20:00,30.4,10.5,30.00,North,0,0.0,0.0,43,0.00,,,0.00,WUHU216HW,2013-04-06 09:20:00,
2013-04-06 05:25:00,30.2,9.8,30.00,North,0,0.0,0.0,42,0.00,,,0.00,WUHU216HW,2013-04-06 09:25:00,
2013-04-06 05:30:00,30.2,9.4,30.00,North,0,0.0,0.0,41,0.00,,,0.00,WUHU216HW,2013-04-06 09:30:00,
2013-04-06 05:35:00,29.9,9.0,30.01,North,0,0.0,0.0,41,0.00,,,0.00,WUHU216HW,2013-04-06 09:35:00,
2013-04-06 05:40:00,29.9,9.0,30.01,North,0,0.0,0.0,41,0.00,,,0.00,WUHU216HW,2013-04-06 09:40:00,
2013-04-06 05:45:00,29.7,9.4,30.02,North,0,0.0,0.0,42,0.00,,,0.00,WUHU216HW,2013-04-06 09:45:00,
2013-04-06 05:50:00,29.3,9.0,30.02,North,0,0.0,0.0,42,0.00,,,0.00,WUHU216HW,2013-04-06 09:50:00,
2013-04-06 05:55:00,29.3,9.0,30.03,North,0,0.0,0.0,42,0.00,,,0.00,WUHU216HW,2013-04-06 09:55:00,
2013-04-06 06:00:00,29.3,9.0,30.03,North,0,0.0,0.0,42,0.00,,,0.00,WUHU216HW,2013-04-06 10:00:00,
2013-04-06 06:05:00,29.2,8.8,30.03,North,0,0.0,0.0,42,0.00,,,0.00,WUHU216HW,2013-04-06 10:05:00,
2013-04-06 06:10:00,29.2,8.8,30.03,North,0,0.0,0.0,42,0.00,,,0.00,WUHU216HW,2013-04-06 10:10:00,
2013-04-06 06:15:00,29.2,8.8,30.03,North,0,0.0,0.0,42,0.00,,,0.00,WUHU216HW,2013-04-06 10:15:00,
2013-04-06 06:20:00,29.2,8.8,30.04,North,0,0.0,0.0,42,0.00,,,0.00,WUHU216HW,2013-04-06 10:20:00,
2013-04-06 06:25:00,29.0,8.7,30.04,NW,315,8.7,8.7,42,0.00,,,0.00,WUHU216HW,2013-04-06 10:25:00,
2013-04-06 06:30:00,29.0,8.2,30.04,NW,315,8.7,8.7,41,0.00,,,0.00,WUHU216HW,2013-04-06 10:30:00,
2013-04-06 06:35:00,29.2,8.4,30.05,NW,315,12.1,12.1,41,0.00,,,0.00,WUHU216HW,2013-04-06 10:35:00,
2013-04-06 06:40:00,29.3,8.0,30.05,North,0,0.0,12.1,40,0.00,,,0.00,WUHU216HW,2013-04-06 10:40:00,
2013-04-06 06:45:00,29.7,7.8,30.05,North,0,0.0,12.1,39,0.00,,,0.00,WUHU216HW,2013-04-06 10:45:00,
2013-04-06 06:50:00,29.5,8.2,30.06,North,0,0.0,0.0,40,0.00,,,0.00,WUHU216HW,2013-04-06 10:50:00,
2013-04-06 06:55:00,29.5,8.2,30.06,North,0,0.0,0.0,40,0.00,,,0.00,WUHU216HW,2013-04-06 10:55:00,
2013-04-06 07:00:00,29.7,8.4,30.06,North,0,0.0,0.0,40,0.00,,,0.00,WUHU216HW,2013-04-06 11:00:00,
2013-04-06 07:06:00,29.7,8.4,30.07,North,0,0.0,0.0,40,0.00,,,0.00,WUHU216HW,2013-04-06 11:06:00,
2013-04-06 07:11:00,29.9,9.0,30.07,North,0,0.0,0.0,41,0.00,,,0.00,WUHU216HW,2013-04-06 11:11:00,
2013-04-06 07:16:00,30.2,10.4,30.08,North,0,0.0,0.0,43,0.00,,,0.00,WUHU216HW,2013-04-06 11:16:00,
2013-04-06 07:21:00,30.2,10.8,30.08,North,0,0.0,0.0,44,0.00,,,0.00,WUHU216HW,2013-04-06 11:21:00,
2013-04-06 07:25:00,29.9,10.0,30.08,North,0,0.0,0.0,43,0.00,,,0.00,WUHU216HW,2013-04-06 11:25:00,
2013-04-06 07:31:00,29.9,9.6,30.09,North,0,0.0,0.0,42,0.00,,,0.00,WUHU216HW,2013-04-06 11:31:00,
2013-04-06 07:33:00,29.9,9.0,30.09,North,0,0.0,0.0,41,0.00,,,0.00,WUHU216HW,2013-04-06 11:33:00,
2013-04-06 07:38:00,29.9,7.8,30.09,North,0,0.0,0.0,39,0.00,,,0.00,WUHU216HW,2013-04-06 11:38:00,
2013-04-06 07:43:00,29.9,7.8,30.10,North,0,0.0,0.0,39,0.00,,,0.00,WUHU216HW,2013-04-06 11:43:00,
2013-04-06 07:48:00,29.9,7.2,30.10,North,0,0.0,0.0,38,0.00,,,0.00,WUHU216HW,2013-04-06 11:48:00,
2013-04-06 07:53:00,30.1,7.4,30.10,North,0,0.0,0.0,38,0.00,,,0.00,WUHU216HW,2013-04-06 11:53:00,
2013-04-06 07:58:00,30.1,6.8,30.10,NW,315,17.7,17.7,37,0.00,,,0.00,WUHU216HW,2013-04-06 11:58:00,
2013-04-06 08:03:00,30.1,7.4,30.10,North,0,0.0,17.7,38,0.00,,,0.00,WUHU216HW,2013-04-06 12:03:00,
2013-04-06 08:08:00,30.2,7.6,30.11,NNW,338,11.0,17.7,38,0.00,,,0.00,WUHU216HW,2013-04-06 12:08:00,
2013-04-06 08:13:00,29.9,7.2,30.11,NNW,338,11.0,11.0,38,0.00,,,0.00,WUHU216HW,2013-04-06 12:13:00,
2013-04-06 08:18:00,29.9,7.2,30.11,North,0,0.0,11.0,38,0.00,,,0.00,WUHU216HW,2013-04-06 12:18:00,
2013-04-06 08:23:00,30.6,7.9,30.11,North,0,0.0,0.0,38,0.00,,,0.00,WUHU216HW,2013-04-06 12:23:00,
2013-04-06 08:28:00,30.6,7.9,30.11,North,0,0.0,0.0,38,0.00,,,0.00,WUHU216HW,2013-04-06 12:28:00,
2013-04-06 08:33:00,30.6,7.3,30.11,North,0,0.0,0.0,37,0.00,,,0.00,WUHU216HW,2013-04-06 12:33:00,
2013-04-06 08:38:00,31.1,7.7,30.11,North,0,0.0,0.0,37,0.00,,,0.00,WUHU216HW,2013-04-06 12:38:00,
2013-04-06 08:43:00,31.3,7.9,30.11,North,0,0.0,0.0,37,0.00,,,0.00,WUHU216HW,2013-04-06 12:43:00,
2013-04-06 08:48:00,31.3,7.3,30.11,North,0,0.0,0.0,36,0.00,,,0.00,WUHU216HW,2013-04-06 12:48:00,
2013-04-06 08:53:00,31.3,7.3,30.11,North,0,0.0,0.0,36,0.00,,,0.00,WUHU216HW,2013-04-06 12:53:00,
2013-04-06 08:58:00,31.1,7.1,30.12,North,0,0.0,0.0,36,0.00,,,0.00,WUHU216HW,2013-04-06 12:58:00,
2013-04-06 09:03:00,31.5,6.9,30.12,North,0,0.0,0.0,35,0.00,,,0.00,WUHU216HW,2013-04-06 13:03:00,
2013-04-06 09:08:00,31.7,5.7,30.12,North,0,0.0,0.0,33,0.00,,,0.00,WUHU216HW,2013-04-06 13:08:00,
2013-04-06 09:13:00,31.7,6.9,30.13,North,0,0.0,0.0,35,0.00,,,0.00,WUHU216HW,2013-04-06 13:13:00,
2013-04-06 09:18:00,31.9,7.1,30.13,North,0,0.0,0.0,35,0.00,,,0.00,WUHU216HW,2013-04-06 13:18:00,
2013-04-06 09:23:00,32.0,6.0,30.13,North,0,0.0,0.0,33,0.00,,,0.00,WUHU216HW,2013-04-06 13:23:00,
2013-04-06 09:28:00,32.2,7.5,30.13,North,0,0.0,0.0,35,0.00,,,0.00,WUHU216HW,2013-04-06 13:28:00,
2013-04-06 09:33:00,32.6,5.9,30.13,West,270,15.7,15.7,32,0.00,,,0.00,WUHU216HW,2013-04-06 13:33:00,
2013-04-06 09:38:00,32.9,6.2,30.13,North,0,0.0,15.7,32,0.00,,,0.00,WUHU216HW,2013-04-06 13:38:00,
2013-04-06 09:43:00,33.5,6.7,30.14,North,0,0.0,15.7,32,0.00,,,0.00,WUHU216HW,2013-04-06 13:43:00,
2013-04-06 09:48:00,34.2,6.0,30.14,North,0,0.0,0.0,30,0.00,,,0.00,WUHU216HW,2013-04-06 13:48:00,
2013-04-06 09:53:00,34.2,6.7,30.15,North,0,0.0,0.0,31,0.00,,,0.00,WUHU216HW,2013-04-06 13:53:00,
2013-04-06 09:58:00,33.8,5.8,30.15,North,0,0.0,0.0,30,0.00,,,0.00,WUHU216HW,2013-04-06 13:58:00,
2013-04-06 10:03:00,33.8,6.4,30.15,North,0,0.0,0.0,31,0.00,,,0.00,WUHU216HW,2013-04-06 14:03:00,
2013-04-06 10:08:00,34.4,6.2,30.15,North,0,0.0,0.0,30,0.00,,,0.00,WUHU216HW,2013-04-06 14:08:00,
2013-04-06 10:13:00,34.7,6.5,30.15,North,0,0.0,0.0,30,0.00,,,0.00,WUHU216HW,2013-04-06 14:13:00,
2013-04-06 10:18:00,34.9,5.8,30.15,North,0,0.0,0.0,29,0.00,,,0.00,WUHU216HW,2013-04-06 14:18:00,
2013-04-06 10:23:00,34.9,5.8,30.15,North,0,0.0,0.0,29,0.00,,,0.00,WUHU216HW,2013-04-06 14:23:00,
2013-04-06 10:28:00,35.5,5.3,30.15,North,0,0.0,0.0,28,0.00,,,0.00,WUHU216HW,2013-04-06 14:28:00,
2013-04-06 10:33:00,35.6,5.5,30.15,North,0,0.0,0.0,28,0.00,,,0.00,WUHU216HW,2013-04-06 14:33:00,
2013-04-06 10:38:00,35.6,4.6,30.15,North,0,0.0,0.0,27,0.00,,,0.00,WUHU216HW,2013-04-06 14:38:00,
2013-04-06 10:43:00,35.6,5.5,30.15,North,0,0.0,0.0,28,0.00,,,0.00,WUHU216HW,2013-04-06 14:43:00,
2013-04-06 10:48:00,35.8,5.7,30.16,North,0,0.0,0.0,28,0.00,,,0.00,WUHU216HW,2013-04-06 14:48:00,
2013-04-06 10:53:00,36.4,6.1,30.16,WNW,293,9.2,9.2,28,0.00,,,0.00,WUHU216HW,2013-04-06 14:53:00,
2013-04-06 10:58:00,36.5,5.4,30.16,NNW,338,7.4,14.8,27,0.00,,,0.00,WUHU216HW,2013-04-06 14:58:00,
2013-04-06 11:03:00,36.0,4.1,30.16,North,0,0.0,14.8,26,0.00,,,0.00,WUHU216HW,2013-04-06 15:03:00,
2013-04-06 11:08:00,36.4,6.1,30.17,North,0,0.0,7.4,28,0.00,,,0.00,WUHU216HW,2013-04-06 15:08:00,
2013-04-06 11:13:00,37.1,6.8,30.16,North,0,0.0,0.0,28,0.00,,,0.00,WUHU216HW,2013-04-06 15:13:00,
2013-04-06 11:18:00,37.4,6.2,30.16,North,0,0.0,0.0,27,0.00,,,0.00,WUHU216HW,2013-04-06 15:18:00,
2013-04-06 11:23:00,37.1,5.9,30.16,North,0,0.0,0.0,27,0.00,,,0.00,WUHU216HW,2013-04-06 15:23:00,
2013-04-06 11:28:00,36.9,5.7,30.16,North,0,0.0,0.0,27,0.00,,,0.00,WUHU216HW,2013-04-06 15:28:00,
2013-04-06 11:33:00,36.9,5.7,30.16,North,0,0.0,0.0,27,0.00,,,0.00,WUHU216HW,2013-04-06 15:33:00,
2013-04-06 11:38:00,37.1,5.9,30.17,North,0,0.0,0.0,27,0.00,,,0.00,WUHU216HW,2013-04-06 15:38:00,
2013-04-06 11:43:00,37.4,6.2,30.17,North,0,0.0,0.0,27,0.00,,,0.00,WUHU216HW,2013-04-06 15:43:00,
2013-04-06 11:48:00,37.4,5.3,30.17,North,0,0.0,0.0,26,0.00,,,0.00,WUHU216HW,2013-04-06 15:48:00,
2013-04-06 11:53:00,37.6,6.3,30.17,North,0,0.0,0.0,27,0.00,,,0.00,WUHU216HW,2013-04-06 15:53:00,
2013-04-06 11:58:00,37.8,6.5,30.17,North,0,0.0,0.0,27,0.00,,,0.00,WUHU216HW,2013-04-06 15:58:00,
2013-04-06 12:03:00,38.2,6.9,30.17,North,0,0.0,0.0,27,0.00,,,0.00,WUHU216HW,2013-04-06 16:03:00,
2013-04-06 12:08:00,38.5,7.1,30.17,North,0,0.0,0.0,27,0.00,,,0.00,WUHU216HW,2013-04-06 16:08:00,
2013-04-06 12:13:00,38.7,7.3,30.16,North,0,0.0,0.0,27,0.00,,,0.00,WUHU216HW,2013-04-06 16:13:00,
2013-04-06 12:18:00,38.9,7.5,30.17,North,0,0.0,0.0,27,0.00,,,0.00,WUHU216HW,2013-04-06 16:18:00,
2013-04-06 12:23:00,39.1,7.6,30.17,North,0,0.0,0.0,27,0.00,,,0.00,WUHU216HW,2013-04-06 16:23:00,
2013-04-06 12:28:00,39.2,5.9,30.17,North,0,0.0,0.0,25,0.00,,,0.00,WUHU216HW,2013-04-06 16:28:00,
2013-04-06 12:33:00,39.6,6.3,30.17,North,0,0.0,0.0,25,0.00,,,0.00,WUHU216HW,2013-04-06 16:33:00,
2013-04-06 12:38:00,39.8,5.5,30.17,North,0,0.0,0.0,24,0.00,,,0.00,WUHU216HW,2013-04-06 16:38:00,
2013-04-06 12:43:00,39.6,7.2,30.17,North,0,0.0,0.0,26,0.00,,,0.00,WUHU216HW,2013-04-06 16:43:00,
2013-04-06 12:48:00,39.8,6.4,30.17,North,0,0.0,0.0,25,0.00,,,0.00,WUHU216HW,2013-04-06 16:48:00,
2013-04-06 12:53:00,40.1,5.9,30.17,North,0,0.0,0.0,24,0.00,,,0.00,WUHU216HW,2013-04-06 16:53:00,
2013-04-06 12:58:00,40.5,7.1,30.17,North,0,0.0,0.0,25,0.00,,,0.00,WUHU216HW,2013-04-06 16:58:00,
2013-04-06 13:03:00,40.3,5.1,30.17,North,0,0.0,0.0,23,0.00,,,0.00,WUHU216HW,2013-04-06 17:03:00,
2013-04-06 13:08:00,40.0,4.8,30.17,North,0,0.0,0.0,23,0.00,,,0.00,WUHU216HW,2013-04-06 17:08:00,
2013-04-06 13:13:00,40.0,5.7,30.17,North,0,0.0,0.0,24,0.00,,,0.00,WUHU216HW,2013-04-06 17:13:00,
2013-04-06 13:18:00,40.3,6.0,30.17,North,0,0.0,0.0,24,0.00,,,0.00,WUHU216HW,2013-04-06 17:18:00,
2013-04-06 13:23:00,40.5,5.3,30.17,North,0,0.0,0.0,23,0.00,,,0.00,WUHU216HW,2013-04-06 17:23:00,
2013-04-06 13:28:00,40.7,6.3,30.17,North,0,0.0,0.0,24,0.00,,,0.00,WUHU216HW,2013-04-06 17:28:00,
2013-04-06 13:33:00,40.7,6.3,30.17,North,0,0.0,0.0,24,0.00,,,0.00,WUHU216HW,2013-04-06 17:33:00,
2013-04-06 13:38:00,41.2,6.0,30.17,North,0,0.0,0.0,23,0.00,,,0.00,WUHU216HW,2013-04-06 17:38:00,
2013-04-06 13:43:00,41.4,5.1,30.17,North,0,0.0,0.0,22,0.00,,,0.00,WUHU216HW,2013-04-06 17:43:00,
2013-04-06 13:48:00,41.4,5.1,30.17,North,0,0.0,0.0,22,0.00,,,0.00,WUHU216HW,2013-04-06 17:48:00,
2013-04-06 13:53:00,41.9,5.6,30.17,North,0,0.0,0.0,22,0.00,,,0.00,WUHU216HW,2013-04-06 17:53:00,
2013-04-06 13:58:00,41.8,5.4,30.17,North,0,0.0,0.0,22,0.00,,,0.00,WUHU216HW,2013-04-06 17:58:00,
2013-04-06 14:03:00,42.1,5.8,30.17,North,0,0.0,0.0,22,0.00,,,0.00,WUHU216HW,2013-04-06 18:03:00,
2013-04-06 14:08:00,42.3,5.0,30.17,North,0,0.0,0.0,21,0.00,,,0.00,WUHU216HW,2013-04-06 18:08:00,
2013-04-06 14:13:00,42.5,6.9,30.17,North,0,0.0,0.0,23,0.00,,,0.00,WUHU216HW,2013-04-06 18:13:00,
2013-04-06 14:18:00,42.8,6.3,30.17,North,0,0.0,0.0,22,0.00,,,0.00,WUHU216HW,2013-04-06 18:18:00,
2013-04-06 14:23:00,43.0,6.5,30.17,North,0,0.0,0.0,22,0.00,,,0.00,WUHU216HW,2013-04-06 18:23:00,
2013-04-06 14:28:00,42.8,5.4,30.17,North,0,0.0,0.0,21,0.00,,,0.00,WUHU216HW,2013-04-06 18:28:00,
2013-04-06 14:33:00,42.5,6.0,30.17,North,0,0.0,0.0,22,0.00,,,0.00,WUHU216HW,2013-04-06 18:33:00,
2013-04-06 14:38:00,42.8,6.3,30.17,North,0,0.0,0.0,22,0.00,,,0.00,WUHU216HW,2013-04-06 18:38:00,
2013-04-06 14:43:00,43.2,6.7,30.17,North,0,0.0,0.0,22,0.00,,,0.00,WUHU216HW,2013-04-06 18:43:00,
2013-04-06 14:48:00,43.0,6.5,30.17,North,0,0.0,0.0,22,0.00,,,0.00,WUHU216HW,2013-04-06 18:48:00,
2013-04-06 14:53:00,43.0,6.5,30.17,North,0,0.0,0.0,22,0.00,,,0.00,WUHU216HW,2013-04-06 18:53:00,
2013-04-06 14:58:00,43.2,6.7,30.16,NW,315,6.5,6.5,22,0.00,,,0.00,WUHU216HW,2013-04-06 18:58:00,
2013-04-06 15:03:00,43.4,6.8,30.16,North,0,0.0,6.5,22,0.00,,,0.00,WUHU216HW,2013-04-06 19:03:00,
2013-04-06 15:08:00,43.6,6.9,30.17,WNW,293,11.2,11.2,22,0.00,,,0.00,WUHU216HW,2013-04-06 19:08:00,
2013-04-06 15:13:00,43.7,7.1,30.16,North,0,0.0,11.2,22,0.00,,,0.00,WUHU216HW,2013-04-06 19:13:00,
2013-04-06 15:18:00,43.7,6.2,30.17,WNW,293,9.8,11.2,21,0.00,,,0.00,WUHU216HW,2013-04-06 19:18:00,
2013-04-06 15:23:00,43.7,6.2,30.16,West,270,14.3,14.3,21,0.00,,,0.00,WUHU216HW,2013-04-06 19:23:00,
2013-04-06 15:28:00,43.9,7.3,30.16,West,270,3.8,14.3,22,0.00,,,0.00,WUHU216HW,2013-04-06 19:28:00,
2013-04-06 15:33:00,43.9,5.5,30.16,NW,315,8.9,14.3,20,0.00,,,0.00,WUHU216HW,2013-04-06 19:33:00,
2013-04-06 15:38:00,43.7,6.2,30.16,WNW,293,7.6,8.9,21,0.00,,,0.00,WUHU216HW,2013-04-06 19:38:00,
2013-04-06 15:43:00,44.1,6.6,30.16,North,0,0.0,8.9,21,0.00,,,0.00,WUHU216HW,2013-04-06 19:43:00,
2013-04-06 15:48:00,44.1,4.1,30.16,NNW,338,3.4,7.6,19,0.00,,,0.00,WUHU216HW,2013-04-06 19:48:00,
2013-04-06 15:53:00,44.3,5.8,30.16,NNW,338,6.7,6.7,20,0.00,,,0.00,WUHU216HW,2013-04-06 19:53:00,
2013-04-06 15:58:00,44.1,5.7,30.16,North,0,0.0,6.7,20,0.00,,,0.00,WUHU216HW,2013-04-06 19:58:00,
2013-04-06 16:03:00,44.3,5.8,30.16,NW,315,6.0,6.7,20,0.00,,,0.00,WUHU216HW,2013-04-06 20:03:00,
2013-04-06 16:08:00,44.1,2.7,30.16,West,270,8.9,8.9,18,0.00,,,0.00,WUHU216HW,2013-04-06 20:08:00,
2013-04-06 16:13:00,44.1,5.7,30.16,North,0,0.0,8.9,20,0.00,,,0.00,WUHU216HW,2013-04-06 20:13:00,
2013-04-06 16:18:00,44.8,6.3,30.16,North,0,0.0,8.9,20,0.00,,,0.00,WUHU216HW,2013-04-06 20:18:00,
2013-04-06 16:23:00,45.2,6.6,30.17,North,0,0.0,0.0,20,0.00,,,0.00,WUHU216HW,2013-04-06 20:23:00,
2013-04-06 16:28:00,45.0,3.4,30.17,North,0,0.0,0.0,18,0.00,,,0.00,WUHU216HW,2013-04-06 20:28:00,
2013-04-06 16:33:00,44.6,3.2,30.17,North,0,0.0,0.0,18,0.00,,,0.00,WUHU216HW,2013-04-06 20:33:00,
2013-04-06 16:38:00,44.5,5.9,30.17,North,0,0.0,0.0,20,0.00,,,0.00,WUHU216HW,2013-04-06 20:38:00,
2013-04-06 16:43:00,44.6,4.7,30.18,North,0,0.0,0.0,19,0.00,,,0.00,WUHU216HW,2013-04-06 20:43:00,
2013-04-06 16:48:00,44.5,4.5,30.18,North,0,0.0,0.0,19,0.00,,,0.00,WUHU216HW,2013-04-06 20:48:00,
2013-04-06 16:53:00,44.6,4.7,30.18,North,0,0.0,0.0,19,0.00,,,0.00,WUHU216HW,2013-04-06 20:53:00,
2013-04-06 16:58:00,44.8,6.3,30.18,North,0,0.0,0.0,20,0.00,,,0.00,WUHU216HW,2013-04-06 20:58:00,
2013-04-06 17:03:00,44.6,6.1,30.18,North,0,0.0,0.0,20,0.00,,,0.00,WUHU216HW,2013-04-06 21:03:00,
2013-04-06 17:08:00,44.5,5.9,30.18,North,0,0.0,0.0,20,0.00,,,0.00,WUHU216HW,2013-04-06 21:08:00,
2013-04-06 17:13:00,44.5,5.9,30.18,North,0,0.0,0.0,20,0.00,,,0.00,WUHU216HW,2013-04-06 21:13:00,
2013-04-06 17:18:00,44.3,5.8,30.18,North,0,0.0,0.0,20,0.00,,,0.00,WUHU216HW,2013-04-06 21:18:00,
2013-04-06 17:23:00,44.3,5.8,30.19,North,0,0.0,0.0,20,0.00,,,0.00,WUHU216HW,2013-04-06 21:23:00,
2013-04-06 17:28:00,44.3,2.9,30.19,North,0,0.0,0.0,18,0.00,,,0.00,WUHU216HW,2013-04-06 21:28:00,
2013-04-06 17:33:00,44.3,5.8,30.19,North,0,0.0,0.0,20,0.00,,,0.00,WUHU216HW,2013-04-06 21:33:00,
2013-04-06 17:38:00,44.5,5.9,30.20,North,0,0.0,0.0,20,0.00,,,0.00,WUHU216HW,2013-04-06 21:38:00,
2013-04-06 17:43:00,44.3,2.9,30.20,North,0,0.0,0.0,18,0.00,,,0.00,WUHU216HW,2013-04-06 21:43:00,
2013-04-06 17:48:00,43.9,2.5,30.20,North,0,0.0,0.0,18,0.00,,,0.00,WUHU216HW,2013-04-06 21:48:00,
2013-04-06 17:53:00,43.7,5.3,30.20,North,0,0.0,0.0,20,0.00,,,0.00,WUHU216HW,2013-04-06 21:53:00,
2013-04-06 17:58:00,43.6,3.7,30.21,North,0,0.0,0.0,19,0.00,,,0.00,WUHU216HW,2013-04-06 21:58:00,
2013-04-06 18:03:00,43.2,4.9,30.21,North,0,0.0,0.0,20,0.00,,,0.00,WUHU216HW,2013-04-06 22:03:00,
2013-04-06 18:08:00,42.8,4.5,30.21,North,0,0.0,0.0,20,0.00,,,0.00,WUHU216HW,2013-04-06 22:08:00,
2013-04-06 18:13:00,42.7,4.3,30.21,North,0,0.0,0.0,20,0.00,,,0.00,WUHU216HW,2013-04-06 22:13:00,
2013-04-06 18:18:00,42.5,4.2,30.22,North,0,0.0,0.0,20,0.00,,,0.00,WUHU216HW,2013-04-06 22:18:00,
2013-04-06 18:23:00,42.1,4.9,30.22,North,0,0.0,0.0,21,0.00,,,0.00,WUHU216HW,2013-04-06 22:23:00,
2013-04-06 18:28:00,42.1,4.9,30.22,North,0,0.0,0.0,21,0.00,,,0.00,WUHU216HW,2013-04-06 22:28:00,
2013-04-06 18:33:00,41.8,4.5,30.22,North,0,0.0,0.0,21,0.00,,,0.00,WUHU216HW,2013-04-06 22:33:00,
2013-04-06 18:38:00,41.8,4.5,30.22,North,0,0.0,0.0,21,0.00,,,0.00,WUHU216HW,2013-04-06 22:38:00,
2013-04-06 18:43:00,41.6,4.4,30.22,North,0,0.0,0.0,21,0.00,,,0.00,WUHU216HW,2013-04-06 22:43:00,
2013-04-06 18:48:00,41.4,5.1,30.22,North,0,0.0,0.0,22,0.00,,,0.00,WUHU216HW,2013-04-06 22:48:00,
2013-04-06 18:53:00,41.4,5.1,30.22,North,0,0.0,0.0,22,0.00,,,0.00,WUHU216HW,2013-04-06 22:53:00,
2013-04-06 18:58:00,41.0,4.9,30.23,North,0,0.0,0.0,22,0.00,,,0.00,WUHU216HW,2013-04-06 22:58:00,
2013-04-06 19:03:00,40.7,4.5,30.23,North,0,0.0,0.0,22,0.00,,,0.00,WUHU216HW,2013-04-06 23:03:00,
2013-04-06 19:08:00,40.3,5.1,30.23,North,0,0.0,0.0,23,0.00,,,0.00,WUHU216HW,2013-04-06 23:08:00,
2013-04-06 19:13:00,39.8,4.6,30.23,North,0,0.0,0.0,23,0.00,,,0.00,WUHU216HW,2013-04-06 23:13:00,
2013-04-06 19:18:00,39.2,4.1,30.23,North,0,0.0,0.0,23,0.00,,,0.00,WUHU216HW,2013-04-06 23:18:00,
2013-04-06 19:23:00,38.7,4.6,30.24,North,0,0.0,0.0,24,0.00,,,0.00,WUHU216HW,2013-04-06 23:23:00,
2013-04-06 19:28:00,38.2,5.1,30.24,North,0,0.0,0.0,25,0.00,,,0.00,WUHU216HW,2013-04-06 23:28:00,
2013-04-06 19:33:00,37.8,3.9,30.25,North,0,0.0,0.0,24,0.00,,,0.00,WUHU216HW,2013-04-06 23:33:00,
2013-04-06 19:38:00,37.1,3.3,30.25,North,0,0.0,0.0,24,0.00,,,0.00,WUHU216HW,2013-04-06 23:38:00,
2013-04-06 19:43:00,36.4,2.6,30.25,North,0,0.0,0.0,24,0.00,,,0.00,WUHU216HW,2013-04-06 23:43:00,
2013-04-06 19:48:00,35.8,3.9,30.26,North,0,0.0,0.0,26,0.00,,,0.00,WUHU216HW,2013-04-06 23:48:00,
2013-04-06 19:53:00,35.1,3.3,30.26,North,0,0.0,0.0,26,0.00,,,0.00,WUHU216HW,2013-04-06 23:53:00,
2013-04-06 19:58:00,34.7,3.0,30.26,North,0,0.0,0.0,26,0.00,,,0.00,WUHU216HW,2013-04-06 23:58:00,
2013-04-06 20:03:00,34.7,3.9,30.26,North,0,0.0,0.0,27,0.00,,,0.00,WUHU216HW,2013-04-07 00:03:00,
2013-04-06 20:08:00,34.7,3.9,30.26,North,0,0.0,0.0,27,0.00,,,0.00,WUHU216HW,2013-04-07 00:08:00,
2013-04-06 20:13:00,34.2,3.4,30.27,North,0,0.0,0.0,27,0.00,,,0.00,WUHU216HW,2013-04-07 00:13:00,
2013-04-06 20:18:00,33.5,3.7,30.27,North,0,0.0,0.0,28,0.00,,,0.00,WUHU216HW,2013-04-07 00:18:00,
2013-04-06 20:23:00,32.6,2.9,30.27,North,0,0.0,0.0,28,0.00,,,0.00,WUHU216HW,2013-04-07 00:23:00,
2013-04-06 20:28:00,32.0,3.2,30.28,North,0,0.0,0.0,29,0.00,,,0.00,WUHU216HW,2013-04-07 00:28:00,
2013-04-06 20:33:00,32.0,4.1,30.28,North,0,0.0,0.0,30,0.00,,,0.00,WUHU216HW,2013-04-07 00:33:00,
2013-04-06 20:38:00,31.7,4.4,30.28,North,0,0.0,0.0,31,0.00,,,0.00,WUHU216HW,2013-04-07 00:38:00,
2013-04-06 20:43:00,31.3,4.8,30.28,North,0,0.0,0.0,32,0.00,,,0.00,WUHU216HW,2013-04-07 00:43:00,
2013-04-06 20:48:00,31.1,4.6,30.28,North,0,0.0,0.0,32,0.00,,,0.00,WUHU216HW,2013-04-07 00:48:00,
2013-04-06 20:53:00,30.6,4.8,30.28,North,0,0.0,0.0,33,0.00,,,0.00,WUHU216HW,2013-04-07 00:53:00,
2013-04-06 20:58:00,30.4,4.6,30.28,North,0,0.0,0.0,33,0.00,,,0.00,WUHU216HW,2013-04-07 00:58:00,
2013-04-06 21:03:00,30.1,5.5,30.28,North,0,0.0,0.0,35,0.00,,,0.00,WUHU216HW,2013-04-07 01:03:00,
2013-04-06 21:08:00,30.2,7.6,30.28,North,0,0.0,0.0,38,0.00,,,0.00,WUHU216HW,2013-04-07 01:08:00,
2013-04-06 21:13:00,30.1,6.8,30.28,North,0,0.0,0.0,37,0.00,,,0.00,WUHU216HW,2013-04-07 01:13:00,
2013-04-06 21:18:00,29.9,5.9,30.28,North,0,0.0,0.0,36,0.00,,,0.00,WUHU216HW,2013-04-07 01:18:00,
2013-04-06 21:23:00,29.5,6.3,30.28,North,0,0.0,0.0,37,0.00,,,0.00,WUHU216HW,2013-04-07 01:23:00,
2013-04-06 21:28:00,29.3,6.1,30.29,North,0,0.0,0.0,37,0.00,,,0.00,WUHU216HW,2013-04-07 01:28:00,
2013-04-06 21:33:00,29.3,6.1,30.28,North,0,0.0,0.0,37,0.00,,,0.00,WUHU216HW,2013-04-07 01:33:00,
2013-04-06 21:39:00,29.2,5.9,30.28,North,0,0.0,0.0,37,0.00,,,0.00,WUHU216HW,2013-04-07 01:39:00,
2013-04-06 21:44:00,28.4,5.3,30.28,North,0,0.0,0.0,37,0.00,,,0.00,WUHU216HW,2013-04-07 01:44:00,
2013-04-06 21:49:00,28.1,5.0,30.28,North,0,0.0,0.0,37,0.00,,,0.00,WUHU216HW,2013-04-07 01:49:00,
2013-04-06 21:54:00,27.7,6.0,30.28,North,0,0.0,0.0,39,0.00,,,0.00,WUHU216HW,2013-04-07 01:54:00,
2013-04-06 21:59:00,27.9,6.1,30.28,North,0,0.0,0.0,39,0.00,,,0.00,WUHU216HW,2013-04-07 01:59:00,
2013-04-06 22:04:00,27.9,6.8,30.28,North,0,0.0,0.0,40,0.00,,,0.00,WUHU216HW,2013-04-07 02:04:00,
2013-04-06 22:09:00,27.7,6.6,30.29,North,0,0.0,0.0,40,0.00,,,0.00,WUHU216HW,2013-04-07 02:09:00,
2013-04-06 22:14:00,27.4,7.2,30.29,North,0,0.0,0.0,42,0.00,,,0.00,WUHU216HW,2013-04-07 02:14:00,
2013-04-06 22:19:00,27.4,7.8,30.29,North,0,0.0,0.0,43,0.00,,,0.00,WUHU216HW,2013-04-07 02:19:00,
2013-04-06 22:24:00,27.4,8.2,30.28,North,0,0.0,0.0,44,0.00,,,0.00,WUHU216HW,2013-04-07 02:24:00,
2013-04-06 22:29:00,27.2,8.0,30.29,North,0,0.0,0.0,44,0.00,,,0.00,WUHU216HW,2013-04-07 02:29:00,
2013-04-06 22:34:00,27.0,8.8,30.28,North,0,0.0,0.0,46,0.00,,,0.00,WUHU216HW,2013-04-07 02:34:00,
2013-04-06 22:39:00,27.0,9.4,30.28,North,0,0.0,0.0,47,0.00,,,0.00,WUHU216HW,2013-04-07 02:39:00,
2013-04-06 22:44:00,27.0,8.8,30.29,North,0,0.0,0.0,46,0.00,,,0.00,WUHU216HW,2013-04-07 02:44:00,
2013-04-06 22:49:00,26.6,8.5,30.29,North,0,0.0,0.0,46,0.00,,,0.00,WUHU216HW,2013-04-07 02:49:00,
2013-04-06 22:54:00,26.3,8.2,30.28,North,0,0.0,0.0,46,0.00,,,0.00,WUHU216HW,2013-04-07 02:54:00,
2013-04-06 22:59:00,26.3,8.6,30.29,North,0,0.0,0.0,47,0.00,,,0.00,WUHU216HW,2013-04-07 02:59:00,
2013-04-06 23:04:00,26.3,8.6,30.29,North,0,0.0,0.0,47,0.00,,,0.00,WUHU216HW,2013-04-07 03:04:00,
2013-04-06 23:09:00,25.9,8.8,30.29,North,0,0.0,0.0,48,0.00,,,0.00,WUHU216HW,2013-04-07 03:09:00,
2013-04-06 23:14:00,25.7,8.2,30.29,North,0,0.0,0.0,47,0.00,,,0.00,WUHU216HW,2013-04-07 03:14:00,
2013-04-06 23:19:00,25.6,8.0,30.29,North,0,0.0,0.0,47,0.00,,,0.00,WUHU216HW,2013-04-07 03:19:00,
2013-04-06 23:24:00,25.0,7.6,30.29,North,0,0.0,0.0,47,0.00,,,0.00,WUHU216HW,2013-04-07 03:24:00,
2013-04-06 23:29:00,24.7,7.7,30.29,North,0,0.0,0.0,48,0.00,,,0.00,WUHU216HW,2013-04-07 03:29:00,
2013-04-06 23:34:00,24.3,6.8,30.29,North,0,0.0,0.0,47,0.00,,,0.00,WUHU216HW,2013-04-07 03:34:00,
2013-04-06 23:40:00,24.1,7.2,30.29,North,0,0.0,0.0,48,0.00,,,0.00,WUHU216HW,2013-04-07 03:40:00,
2013-04-06 23:45:00,23.9,8.0,30.29,North,0,0.0,0.0,50,0.00,,,0.00,WUHU216HW,2013-04-07 03:45:00,
2013-04-06 23:50:00,24.3,10.4,30.29,North,0,0.0,0.0,55,0.00,,,0.00,WUHU216HW,2013-04-07 03:50:00,
2013-04-06 23:55:00,24.8,9.6,30.29,North,0,0.0,0.0,52,0.00,,,0.00,WUHU216HW,2013-04-07 03:55:00,